Showing default

STARS-AO, 43679

Orbit data source: Space-Track

STARS-AO, 43679 is a payload satellite owned by Shizuoka U (JP) in SSO that was launched on Mon, 29 Oct 2018 UTC via an H-IIA 202 launch vehicle from the Tanegashima Space Center (TNSTA). Payload-class satellites include a variety of spacecraft equipped with specific instruments for various scientific and technological missions. These include communications satellites like Starlink; space stations such as the ISS; scientific satellites like the Hubble; Earth observation satellites from companies like Planet Labs, Umbra, and HawkEye 360; GPS; miniature CubeSats for education and research; and military/defense satellites.

Loading next visibility...
Identifier
43679, 2018-084J
Orbit
SSO
Country
Flag of JPJP / JPN
Related business
Manufacturer
Shizuoka U
Mission
Operational Amateur Astronomy
Bus & Motor
CUBESAT 1U, Unknown motor
Mass
1.4 kg wet, 1.4 kg dry
Launch date (UTC)
2018-10-29 (7 years ago)
Launch vehicle
H-IIA 202
Launch site
Tanegashima Space Center (TNSTA)
Object type
Payload
Rocket body
Debris
Shape & HBR
Box, 0.1 m
Radar Cross Section
0.015 m², Small (<0.1 m²)

Expand to show TLE details & history
Last TLE update: 9 hours ago

TLE from 9 hours ago
0 STARS-AO
1 43679U 18084J   26034.10469673  .00008013  00000-0  43012-3 0  9996
2 43679  98.0624 239.8495 0001064 271.8050  88.3059 15.15231056397151
Epoch: 2026-02-03T02:30Z
TLE epoch observation values (Epoch: 2026-02-03T02:30:45.797Z)
Latitude
Longitude
68.86826°
Altitude
523.32 km
Speed
7.602 km/s
True Right ascension
15h 59m 23s
True Declination
0° 00' 00"
Sunlit
Object was in daylight at epoch
Visualization orbit readout
Latitude
Unknown
Longitude
Unknown
Altitude
Unknown
Speed
Unknown
Apparent Right ascension
Unknown
Apparent Declination
Unknown
Sunlit
N/A
Visualization observer readout
Local Sidereal Time
13:04:23
Azimuth
Unknown
Elevation
Unknown
Doppler factor
Unknown
Orbital elements
Apogee altitude
518.012 km
Perigee altitude
516.545 km
Semi-major axis
6,895.416 km
Eccentricity
0.00011
Inclination
98.0624°
RAAN
239.8495°
Arg. of periapsis
271.805°
True anomaly
88.31809°
Mean anomaly
88.3059°
Eccentric anomaly
88.31199°
Mean motion
3.79055 °/min
Orbital period
94.97 mins
BSTAR
0.00043012
Loading maneuver chart data...
Computing Atmospheric mass density...
Loading historical data...
Loading historical data...
Loading historical data...
Loading historical data...
Loading historical data...
Loading historical data...
Loading historical data...

Documentation

Showing up to 5 results
|